TimeEDT,TemperatureF,Dew PointF,Humidity,Sea Level PressureIn,VisibilityMPH,Wind Direction,Wind SpeedMPH,Gust SpeedMPH,PrecipitationIn,Events,Conditions,WindDirDegrees,DateUTC
12:15 AM,41.0,30.2,65,30.07,10.0,North,3.5,-,N/A,,Unknown,350,2012-11-03 04:15:00
12:35 AM,41.0,30.2,65,30.08,10.0,Calm,Calm,-,N/A,,Unknown,0,2012-11-03 04:35:00
12:55 AM,41.0,30.6,66,30.08,10.0,Calm,Calm,-,N/A,,Unknown,0,2012-11-03 04:55:00
1:15 AM,41.0,29.7,64,30.08,10.0,North,3.5,-,N/A,,Unknown,360,2012-11-03 05:15:00
1:35 AM,40.6,29.8,65,30.08,10.0,Calm,Calm,-,N/A,,Unknown,0,2012-11-03 05:35:00
1:55 AM,40.5,30.0,66,30.08,10.0,Calm,Calm,-,N/A,,Unknown,0,2012-11-03 05:55:00
2:15 AM,40.3,30.0,67,30.08,10.0,Calm,Calm,-,N/A,,Unknown,0,2012-11-03 06:15:00
2:35 AM,40.1,30.2,68,30.08,10.0,Calm,Calm,-,N/A,,Unknown,0,2012-11-03 06:35:00
2:55 AM,40.1,30.0,67,30.08,10.0,Calm,Calm,-,N/A,,Unknown,0,2012-11-03 06:55:00
3:15 AM,40.1,30.4,68,30.09,10.0,Calm,Calm,-,N/A,,Unknown,0,2012-11-03 07:15:00
3:35 AM,39.7,31.1,71,30.09,10.0,Calm,Calm,-,N/A,,Unknown,0,2012-11-03 07:35:00
3:55 AM,40.1,30.4,68,30.09,10.0,Calm,Calm,-,N/A,,Unknown,0,2012-11-03 07:55:00
4:15 AM,39.7,30.9,71,30.09,10.0,Calm,Calm,-,N/A,,Unknown,0,2012-11-03 08:15:00
4:35 AM,39.2,32.2,76,30.09,10.0,Calm,Calm,-,N/A,,Unknown,0,2012-11-03 08:35:00
4:55 AM,39.0,32.5,78,30.10,10.0,Calm,Calm,-,N/A,,Unknown,0,2012-11-03 08:55:00
5:15 AM,39.2,32.0,75,30.11,10.0,Calm,Calm,-,N/A,,Unknown,0,2012-11-03 09:15:00
5:35 AM,39.2,32.0,75,30.11,10.0,Calm,Calm,-,N/A,,Unknown,0,2012-11-03 09:35:00
5:55 AM,39.2,31.5,74,30.12,10.0,Calm,Calm,-,N/A,,Unknown,0,2012-11-03 09:55:00
6:15 AM,39.2,32.0,75,30.12,10.0,Calm,Calm,-,N/A,,Unknown,0,2012-11-03 10:15:00
6:35 AM,39.7,30.4,69,30.13,10.0,WNW,3.5,-,N/A,,Unknown,300,2012-11-03 10:35:00
6:55 AM,39.7,29.8,68,30.13,10.0,NW,3.5,-,N/A,,Unknown,310,2012-11-03 10:55:00
7:15 AM,40.1,29.8,67,30.14,10.0,Calm,Calm,-,N/A,,Unknown,0,2012-11-03 11:15:00
7:35 AM,39.6,31.1,72,30.14,10.0,Calm,Calm,-,N/A,,Unknown,0,2012-11-03 11:35:00
7:55 AM,39.4,30.9,72,30.14,10.0,Calm,Calm,-,N/A,,Unknown,0,2012-11-03 11:55:00
8:15 AM,39.2,31.5,74,30.14,10.0,Calm,Calm,-,N/A,,Unknown,0,2012-11-03 12:15:00
8:35 AM,39.4,31.6,74,30.15,10.0,Calm,Calm,-,N/A,,Unknown,0,2012-11-03 12:35:00
8:55 AM,40.1,30.6,69,30.15,10.0,WSW,4.6,-,N/A,,Unknown,240,2012-11-03 12:55:00
9:15 AM,40.1,30.9,70,30.15,10.0,Calm,Calm,-,N/A,,Unknown,0,2012-11-03 13:15:00
9:35 AM,40.6,31.5,70,30.16,10.0,Calm,Calm,-,N/A,,Unknown,0,2012-11-03 13:35:00
9:55 AM,41.5,31.1,66,30.16,10.0,Calm,Calm,-,N/A,,Unknown,0,2012-11-03 13:55:00
10:15 AM,41.9,30.0,63,30.17,10.0,WNW,4.6,-,N/A,,Unknown,290,2012-11-03 14:15:00
10:35 AM,42.8,29.5,59,30.17,10.0,WNW,5.8,-,N/A,,Unknown,300,2012-11-03 14:35:00
10:55 AM,42.6,29.5,60,30.17,10.0,WNW,3.5,-,N/A,,Unknown,300,2012-11-03 14:55:00
11:35 AM,43.7,29.7,58,30.17,10.0,North,5.8,-,N/A,,Unknown,360,2012-11-03 15:35:00
11:55 AM,43.3,29.3,58,30.17,10.0,North,3.5,-,N/A,,Unknown,350,2012-11-03 15:55:00
12:15 PM,43.5,29.1,57,30.17,10.0,North,3.5,-,N/A,,Unknown,360,2012-11-03 16:15:00
12:35 PM,45.0,30.2,56,30.16,10.0,Calm,Calm,-,N/A,,Unknown,0,2012-11-03 16:35:00
12:55 PM,44.8,29.8,56,30.14,10.0,North,3.5,-,N/A,,Unknown,10,2012-11-03 16:55:00
1:15 PM,44.8,29.5,55,30.13,10.0,Calm,Calm,-,N/A,,Unknown,0,2012-11-03 17:15:00
1:35 PM,45.3,28.8,52,30.13,10.0,Calm,Calm,-,N/A,,Unknown,0,2012-11-03 17:35:00
2:15 PM,45.1,29.8,55,30.12,10.0,NNW,4.6,-,N/A,,Unknown,330,2012-11-03 18:15:00
2:35 PM,46.4,30.4,54,30.12,10.0,Calm,Calm,-,N/A,,Unknown,0,2012-11-03 18:35:00
2:55 PM,46.2,29.5,52,30.12,10.0,Calm,Calm,-,N/A,,Unknown,0,2012-11-03 18:55:00
3:15 PM,45.5,28.9,52,30.12,10.0,Calm,Calm,-,N/A,,Unknown,0,2012-11-03 19:15:00
3:35 PM,45.5,29.3,53,30.09,10.0,East,4.6,-,N/A,,Unknown,90,2012-11-03 19:35:00
3:55 PM,45.9,30.0,54,30.09,10.0,Calm,Calm,-,N/A,Rain,Light Rain,0,2012-11-03 19:55:00
4:15 PM,45.7,29.5,53,30.11,10.0,Calm,Calm,-,N/A,,Unknown,0,2012-11-03 20:15:00
4:35 PM,45.3,30.7,57,30.10,10.0,Calm,Calm,-,N/A,Rain,Light Rain,0,2012-11-03 20:35:00
4:55 PM,45.0,31.8,60,30.09,10.0,Calm,Calm,-,N/A,,Unknown,0,2012-11-03 20:55:00
5:15 PM,45.0,30.4,57,30.11,10.0,Calm,Calm,-,N/A,,Unknown,0,2012-11-03 21:15:00
5:35 PM,44.6,33.8,66,30.10,10.0,Calm,Calm,-,N/A,Rain,Light Rain,0,2012-11-03 21:35:00
5:55 PM,43.9,35.6,73,30.09,10.0,Calm,Calm,-,N/A,,Light Drizzle,0,2012-11-03 21:55:00
6:15 PM,43.5,34.2,70,30.09,10.0,Calm,Calm,-,N/A,,Unknown,0,2012-11-03 22:15:00
6:35 PM,43.2,35.2,74,30.09,10.0,Calm,Calm,-,N/A,Rain,Light Rain,0,2012-11-03 22:35:00
6:55 PM,42.4,37.0,81,30.10,10.0,Calm,Calm,-,N/A,,Light Drizzle,0,2012-11-03 22:55:00
7:15 PM,42.3,37.6,83,30.11,10.0,Calm,Calm,-,N/A,,Unknown,0,2012-11-03 23:15:00
7:35 PM,42.3,37.6,83,30.11,10.0,Calm,Calm,-,N/A,,Light Drizzle,0,2012-11-03 23:35:00
7:55 PM,41.9,37.2,83,30.11,10.0,Calm,Calm,-,N/A,Rain,Light Rain,0,2012-11-03 23:55:00
8:15 PM,41.5,36.7,83,30.11,10.0,Calm,Calm,-,N/A,Rain,Rain,0,2012-11-04 00:15:00
8:35 PM,41.5,38.3,88,30.11,10.0,Calm,Calm,-,N/A,,Unknown,0,2012-11-04 00:35:00
8:55 PM,41.5,38.7,89,30.12,10.0,Calm,Calm,-,N/A,,Unknown,0,2012-11-04 00:55:00
9:15 PM,42.1,37.8,85,30.11,10.0,Calm,Calm,-,N/A,,Unknown,0,2012-11-04 01:15:00
9:35 PM,41.5,36.7,83,30.11,10.0,ENE,5.8,-,N/A,,Unknown,70,2012-11-04 01:35:00
9:55 PM,41.2,35.1,79,30.12,10.0,ENE,4.6,-,N/A,,Unknown,60,2012-11-04 01:55:00
10:35 PM,41.2,34.2,76,30.12,10.0,NE,4.6,-,N/A,,Unknown,40,2012-11-04 02:35:00
10:55 PM,41.2,34.2,76,30.12,10.0,NE,4.6,-,N/A,,Unknown,40,2012-11-04 02:55:00
11:15 PM,41.0,34.7,78,30.11,10.0,ENE,3.5,-,N/A,,Unknown,70,2012-11-04 03:15:00
11:35 PM,41.0,34.7,78,30.11,10.0,Calm,Calm,-,N/A,,Unknown,0,2012-11-04 03:35:00
11:55 PM,41.0,34.2,77,30.11,10.0,NE,4.6,-,N/A,,Unknown,40,2012-11-04 03:55:00